KE8RXN Weather Reports


Display with metric or nautical units.
time (UTC)temp
F
wind
direction
speed
MPH
gust
MPH
rain 1hr
in
rain 24hr
in
rain mn
in
humidity
%
barometer
mb
20260507020757 47 26 0.0 0.0 0.00 0.00 0.00 54 1017.1
20260507020253 47 60 1.0 1.0 0.00 0.00 0.00 54 1017.1
20260507015751 47 21 0.0 1.0 0.00 0.00 0.00 53 1017.0
20260507015248 48 33 0.0 0.0 0.00 0.00 0.00 55 1016.9
20260507014745 48 27 0.0 0.0 0.00 0.00 0.00 53 1016.9
20260507014241 48 335 0.0 1.0 0.00 0.00 0.00 53 1016.9
20260507013738 48 348 1.0 1.0 0.00 0.00 0.00 53 1016.8
20260507013235 48 22 0.0 0.0 0.00 0.00 0.00 53 1016.8
20260507012732 48 31 0.0 0.0 0.00 0.00 0.00 53 1016.9
20260507012228 48 300 1.0 1.0 0.00 0.00 0.00 52 1016.8
20260507011726 48 279 1.0 2.0 0.00 0.00 0.00 51 1016.7
20260507011222 48 13 0.0 1.0 0.00 0.00 0.00 51 1016.9
20260507010722 49 20 0.0 1.0 0.00 0.00 0.00 50 1016.7
20260507010218 49 328 1.0 1.0 0.00 0.00 0.00 49 1017.0
20260507005716 49 304 2.0 2.0 0.00 0.00 0.00 49 1016.7
20260507005212 49 21 1.0 1.0 0.00 0.00 0.00 50 1016.8
20260507004709 49 319 2.0 2.0 0.00 0.00 0.00 48 1016.6
20260507004206 49 239 2.0 3.0 0.00 0.00 0.00 49 1016.8
20260507003702 49 317 1.0 2.0 0.00 0.00 0.00 48 1016.6
20260507003157 49 336 1.0 1.0 0.00 0.00 0.00 48 1016.6
20260507002654 50 22 1.0 1.0 0.00 0.00 0.00 48 1016.6
20260507002150 50 256 2.0 2.0 0.00 0.00 0.00 47 1016.6
20260507001647 50 317 1.0 1.0 0.00 0.00 0.00 47 1016.5
20260507001144 50 258 3.0 5.0 0.00 0.00 0.00 47 1016.4
20260507000641 50 20 1.0 1.0 0.00 0.00 0.00 47 1016.4
20260507000136 50 344 1.0 1.0 0.00 0.00 0.00 47 1016.3
20260506235633 50 20 1.0 1.0 0.00 0.00 0.00 47 1016.4
20260506235128 50 1 1.0 1.0 0.00 0.00 0.00 46 1016.5
20260506234626 50 320 1.0 2.0 0.00 0.00 0.00 46 1016.4
20260506234122 50 271 3.0 3.0 0.00 0.00 0.00 45 1016.4
20260506233620 50 305 1.0 2.0 0.00 0.00 0.00 45 1016.4
20260506233117 50 356 1.0 1.0 0.00 0.00 0.00 45 1016.3
20260506232612 51 2 1.0 2.0 0.00 0.00 0.00 44 1016.5
20260506232108 51 273 5.0 6.0 0.00 0.00 0.00 43 1016.3
20260506231605 51 325 2.0 2.0 0.00 0.00 0.00 43 1016.3
20260506231104 51 253 4.0 5.0 0.00 0.00 0.00 43 1016.2
20260506230600 51 325 4.0 6.0 0.00 0.00 0.00 42 1016.3
20260506230057 52 313 3.0 3.0 0.00 0.00 0.00 43 1016.3
20260506225554 52 293 2.0 2.0 0.00 0.00 0.00 43 1016.2
20260506225050 52 265 7.0 9.0 0.00 0.00 0.00 41 1016.3
20260506224547 52 227 3.0 3.0 0.00 0.00 0.00 41 1016.3
20260506224044 53 340 2.0 2.0 0.00 0.00 0.00 41 1016.4
20260506223539 53 275 3.0 5.0 0.00 0.00 0.00 40 1016.3
20260506223036 53 308 2.0 2.0 0.00 0.00 0.00 41 1016.3
20260506222533 53 344 3.0 5.0 0.00 0.00 0.00 40 1016.3
20260506222029 53 309 5.0 7.0 0.00 0.00 0.00 40 1016.4
20260506221527 53 253 3.0 3.0 0.00 0.00 0.00 40 1016.2
20260506221025 53 286 4.0 6.0 0.00 0.00 0.00 39 1016.4
20260506220521 53 241 4.0 5.0 0.00 0.00 0.00 40 1016.3
20260506220016 54 236 3.0 6.0 0.00 0.00 0.00 40 1016.2
20260506215513 53 308 2.0 2.0 0.00 0.00 0.00 40 1016.3
20260506215009 54 290 4.0 8.0 0.00 0.00 0.00 39 1016.2
20260506214506 54 284 3.0 3.0 0.00 0.00 0.00 38 1016.3
20260506214003 54 232 5.0 6.0 0.00 0.00 0.00 38 1016.3
20260506213502 55 276 4.0 5.0 0.00 0.00 0.00 37 1016.3
20260506212958 55 4 2.0 2.0 0.00 0.00 0.00 39 1016.2
20260506212454 55 253 4.0 5.0 0.00 0.00 0.00 38 1016.4
20260506211949 55 289 3.0 3.0 0.00 0.00 0.00 38 1016.2
20260506211445 55 311 3.0 3.0 0.00 0.00 0.00 38 1016.2
20260506210943 56 244 5.0 7.0 0.00 0.00 0.00 37 1016.1
20260506210439 55 265 4.0 5.0 0.00 0.00 0.00 37 1016.2
20260506205937 55 295 4.0 5.0 0.00 0.00 0.00 38 1016.3
20260506205432 56 224 7.0 8.0 0.00 0.00 0.00 36 1016.4
20260506204928 55 201 7.0 10.0 0.00 0.00 0.00 37 1016.1
20260506204427 56 245 4.0 6.0 0.00 0.00 0.00 38 1016.5
20260506203924 55 282 3.0 3.0 0.00 0.00 0.00 37 1016.4
20260506203421 55 216 3.0 5.0 0.00 0.00 0.00 38 1016.4
20260506202918 56 278 3.0 6.0 0.00 0.00 0.00 37 1016.4
20260506202415 56 255 3.0 3.0 0.00 0.00 0.00 37 1016.4
20260506201911 55 246 7.0 10.0 0.00 0.00 0.00 36 1016.3
20260506201409 56 263 3.0 3.0 0.00 0.00 0.00 36 1016.5
20260506200905 57 254 3.0 5.0 0.00 0.00 0.00 37 1016.5
20260506200401 56 288 3.0 5.0 0.00 0.00 0.00 37 1016.5
20260506195858 55 287 3.0 5.0 0.00 0.00 0.00 37 1016.5
20260506195355 55 279 5.0 7.0 0.00 0.00 0.00 35 1016.6
20260506194852 54 295 4.0 5.0 0.00 0.00 0.00 38 1016.8
20260506194349 55 293 3.0 5.0 0.00 0.00 0.00 36 1016.4
20260506193846 56 241 4.0 5.0 0.00 0.00 0.00 35 1016.6
20260506193343 56 273 1.0 1.0 0.00 0.00 0.00 38 1016.6
20260506192839 55 220 5.0 6.0 0.00 0.00 0.00 37 1016.8
20260506192336 56 4 3.0 5.0 0.00 0.00 0.00 35 1016.8
20260506191833 54 273 3.0 3.0 0.00 0.00 0.00 37 1016.6
20260506191329 55 292 4.0 5.0 0.00 0.00 0.00 36 1016.7
20260506190827 55 257 4.0 6.0 0.00 0.00 0.00 37 1016.5
20260506190323 54 209 3.0 3.0 0.00 0.00 0.00 39 1016.8
20260506185820 54 281 4.0 5.0 0.00 0.00 0.00 38 1016.7
20260506185317 54 239 5.0 7.0 0.00 0.00 0.00 38 1016.6
20260506184814 54 226 3.0 5.0 0.00 0.00 0.00 39 1016.7
20260506184311 53 295 2.0 3.0 0.00 0.00 0.00 40 1016.7
20260506183808 55 311 3.0 5.0 0.00 0.00 0.00 37 1016.7
20260506183303 54 323 3.0 3.0 0.00 0.00 0.00 39 1016.6
20260506182801 55 287 5.0 6.0 0.00 0.00 0.00 38 1016.5
20260506182258 54 282 3.0 3.0 0.00 0.00 0.00 40 1016.5
20260506181755 54 232 8.0 8.0 0.00 0.00 0.00 40 1016.5
20260506181253 54 271 5.0 8.0 0.00 0.00 0.00 39 1016.6
20260506180750 53 287 3.0 3.0 0.00 0.00 0.00 40 1016.7
20260506180246 54 319 2.0 2.0 0.00 0.00 0.00 40 1016.7
20260506175742 54 287 4.0 7.0 0.00 0.00 0.00 39 1016.6
20260506175240 52 277 3.0 5.0 0.00 0.00 0.00 42 1016.7
20260506174737 53 328 3.0 3.0 0.00 0.00 0.00 39 1016.6
20260506174234 54 239 10.0 15.0 0.00 0.00 0.00 38 1016.6
20260506173732 53 278 4.0 5.0 0.00 0.00 0.00 39 1016.7
20260506173228 52 271 3.0 5.0 0.00 0.00 0.00 40 1016.6
20260506172725 53 291 5.0 10.0 0.00 0.00 0.00 41 1016.8
20260506172221 52 294 4.0 5.0 0.00 0.00 0.00 40 1016.8
20260506171719 53 283 3.0 5.0 0.00 0.00 0.00 40 1016.8
20260506171216 53 313 2.0 2.0 0.00 0.00 0.00 41 1016.8
20260506170714 52 241 7.0 11.0 0.00 0.00 0.00 41 1017.1
20260506170210 52 336 1.0 2.0 0.00 0.00 0.00 40 1016.9
20260506165709 51 272 1.0 2.0 0.00 0.00 0.00 42 1016.9
20260506165205 51 233 2.0 2.0 0.00 0.00 0.00 42 1016.9
20260506164702 52 289 4.0 5.0 0.00 0.00 0.00 42 1017.0
20260506164200 53 284 3.0 5.0 0.00 0.00 0.00 43 1016.9
20260506163656 53 324 1.0 1.0 0.00 0.00 0.00 43 1017.0
20260506163151 53 355 1.0 1.0 0.00 0.00 0.00 44 1016.9
20260506162647 53 15 1.0 1.0 0.00 0.00 0.00 41 1016.8
20260506162145 52 17 0.0 1.0 0.00 0.00 0.00 43 1017.1
20260506161642 51 341 2.0 2.0 0.00 0.00 0.00 44 1016.9
20260506161139 51 272 2.0 2.0 0.00 0.00 0.00 45 1017.1
20260506160636 51 350 1.0 1.0 0.00 0.00 0.00 45 1017.0
20260506160133 53 265 2.0 2.0 0.00 0.00 0.00 42 1017.0
20260506155631 55 11 2.0 3.0 0.00 0.00 0.00 40 1017.1
20260506155128 52 23 0.0 1.0 0.00 0.00 0.00 43 1017.1
20260506153225 53 359 2.0 2.0 0.00 0.00 0.00 42 1017.1
20260506152721 52 18 0.0 1.0 0.00 0.00 0.00 43 1017.2
20260506152219 52 24 1.0 1.0 0.00 0.00 0.00 43 1016.9
20260506151718 52 306 3.0 3.0 0.00 0.00 0.00 42 1016.9
20260506151214 52 352 2.0 2.0 0.00 0.00 0.00 42 1017.0
20260506150710 52 31 1.0 1.0 0.00 0.00 0.00 44 1017.0
20260506150208 51 240 2.0 3.0 0.00 0.00 0.00 43 1017.0
20260506145705 50 200 5.0 6.0 0.00 0.00 0.00 45 1016.9
20260506145201 50 5 0.0 1.0 0.00 0.00 0.00 43 1017.1
20260506144659 50 303 1.0 2.0 0.00 0.00 0.00 43 1017.1
20260506144155 52 181 3.0 5.0 0.00 0.00 0.00 44 1016.9
20260506143653 52 28 1.0 1.0 0.00 0.00 0.00 42 1016.7
20260506143151 52 24 1.0 1.0 0.00 0.00 0.00 46 1016.7
20260506142649 50 57 1.0 2.0 0.00 0.00 0.00 46 1016.7
20260506142147 51 73 2.0 2.0 0.00 0.00 0.00 48 1016.7
20260506141644 52 291 2.0 2.0 0.00 0.00 0.00 47 1016.5
20260506141142 51 45 0.0 0.0 0.00 0.00 0.00 52 1016.5
20260506140639 51 40 0.0 0.0 0.00 0.00 0.00 53 1016.8
20260506140137 50 74 2.0 2.0 0.00 0.00 0.00 51 1016.6
20260506135633 49 59 1.0 1.0 0.00 0.00 0.00 53 1016.3
20260506135130 48 51 1.0 1.0 0.00 0.00 0.00 58 1016.5
20260506134626 48 58 2.0 2.0 0.00 0.00 0.00 59 1016.4
20260506134122 48 357 1.0 1.0 0.00 0.00 0.00 61 1016.5
20260506133620 47 55 1.0 1.0 0.00 0.00 0.00 64 1016.3
20260506133116 47 56 2.0 2.0 0.00 0.00 0.00 63 1016.4
20260506132614 47 45 3.0 3.0 0.00 0.00 0.00 65 1016.3
20260506132111 46 62 1.0 2.0 0.00 0.00 0.00 66 1016.3
20260506131608 46 20 1.0 2.0 0.00 0.00 0.00 66 1016.1
20260506131104 46 33 1.0 1.0 0.00 0.00 0.00 67 1016.4
20260506130601 45 33 1.0 2.0 0.00 0.00 0.00 67 1016.3
20260506130059 45 27 1.0 1.0 0.00 0.00 0.00 68 1016.3
20260506125557 45 59 3.0 3.0 0.00 0.00 0.00 68 1016.5
20260506125054 44 64 2.0 3.0 0.00 0.00 0.00 71 1016.4
20260506124552 44 69 3.0 3.0 0.00 0.00 0.00 69 1016.3
20260506124049 44 54 1.0 2.0 0.00 0.00 0.00 71 1016.3
20260506123547 43 47 1.0 1.0 0.00 0.00 0.00 71 1016.4
20260506123045 43 45 1.0 1.0 0.00 0.00 0.00 72 1016.3
20260506122541 42 29 1.0 2.0 0.00 0.00 0.00 74 1016.3
20260506122040 42 43 3.0 3.0 0.00 0.00 0.00 73 1016.2
20260506121537 42 30 1.0 1.0 0.00 0.00 0.00 75 1016.1
20260506121033 42 34 1.0 1.0 0.00 0.00 0.00 74 1016.0
20260506120531 42 29 1.0 1.0 0.00 0.00 0.00 74 1016.3
20260506120028 42 40 1.0 1.0 0.00 0.00 0.00 74 1015.8
20260506115526 41 30 1.0 1.0 0.00 0.00 0.00 74 1015.8
20260506115025 41 41 0.0 0.0 0.00 0.00 0.00 75 1015.7
20260506114521 41 18 1.0 1.0 0.00 0.00 0.00 75 1015.5
20260506114020 40 7 1.0 1.0 0.00 0.00 0.00 76 1015.4
20260506113517 40 48 0.0 1.0 0.00 0.00 0.00 77 1015.3
20260506113015 39 39 1.0 2.0 0.00 0.00 0.00 77 1015.3
20260506112511 39 39 1.0 1.0 0.00 0.00 0.00 80 1015.2
20260506112009 38 38 0.0 0.0 0.00 0.00 0.00 82 1015.2
20260506111507 36 34 0.0 0.0 0.00 0.00 0.00 84 1015.1
20260506111003 36 23 0.0 1.0 0.00 0.00 0.00 84 1014.9
20260506110501 36 3 0.0 1.0 0.00 0.00 0.00 84 1014.7
20260506105957 36 35 0.0 0.0 0.00 0.00 0.00 85 1014.6
20260506105454 35 36 0.0 0.0 0.00 0.00 0.00 86 1014.7
20260506104951 35 33 0.0 0.0 0.00 0.00 0.00 88 1014.9
20260506104449 34 38 0.0 0.0 0.00 0.00 0.00 88 1014.7
20260506103947 34 39 0.0 0.0 0.00 0.00 0.00 88 1014.8
20260506103444 34 38 0.0 0.0 0.00 0.00 0.00 88 1014.9
20260506102941 34 41 0.0 0.0 0.00 0.00 0.00 88 1014.9
20260506102439 34 39 0.0 0.0 0.00 0.00 0.00 87 1014.8
20260506101936 35 38 0.0 0.0 0.00 0.00 0.00 86 1014.9
20260506101432 35 38 0.0 0.0 0.00 0.00 0.00 85 1014.7
20260506100930 36 33 0.0 0.0 0.00 0.00 0.00 84 1014.7
20260506100428 36 20 0.0 1.0 0.00 0.00 0.00 84 1014.7
20260506095926 36 33 0.0 0.0 0.00 0.00 0.00 84 1014.5
20260506095424 37 27 0.0 0.0 0.00 0.00 0.00 83 1014.6
20260506094920 37 27 0.0 0.0 0.00 0.00 0.00 84 1014.5
20260506094419 37 30 0.0 0.0 0.00 0.00 0.00 84 1014.4
20260506093916 37 29 0.0 0.0 0.00 0.00 0.00 84 1014.5
20260506093414 37 27 0.0 1.0 0.00 0.00 0.00 84 1014.4
20260506092911 37 22 0.0 0.0 0.00 0.00 0.00 83 1014.4
20260506092409 37 27 0.0 0.0 0.00 0.00 0.00 83 1014.2
20260506091905 37 29 0.0 0.0 0.00 0.00 0.00 83 1014.1
20260506091403 37 33 0.0 0.0 0.00 0.00 0.00 82 1014.0
20260506090900 37 29 0.0 0.0 0.00 0.00 0.00 82 1014.0
20260506090358 38 24 0.0 1.0 0.00 0.00 0.00 82 1014.0
20260506085854 37 11 1.0 1.0 0.00 0.00 0.00 83 1014.0
20260506085351 37 18 0.0 1.0 0.00 0.00 0.00 83 1013.9
20260506084847 37 28 0.0 0.0 0.00 0.00 0.00 83 1013.9
20260506084344 38 30 0.0 0.0 0.00 0.00 0.00 83 1014.0
20260506083841 38 28 0.0 0.0 0.00 0.00 0.00 82 1013.7
20260506083338 38 30 0.0 0.0 0.00 0.00 0.00 82 1013.7
20260506082835 38 27 0.0 0.0 0.00 0.00 0.00 82 1013.8
20260506082332 38 28 0.0 0.0 0.00 0.00 0.00 82 1013.9
20260506081828 38 28 0.0 0.0 0.00 0.00 0.00 82 1013.7
20260506081326 38 33 0.0 0.0 0.00 0.00 0.00 83 1014.0
20260506080824 38 32 0.0 0.0 0.00 0.00 0.00 83 1013.7
20260506080320 39 33 0.0 0.0 0.00 0.00 0.00 82 1014.0
20260506073304 39 31 0.0 0.0 0.00 0.00 0.00 83 1014.0
20260506072801 39 31 0.0 0.0 0.00 0.00 0.00 82 1014.0
20260506072258 39 27 0.0 0.0 0.00 0.00 0.00 82 1014.1
20260506071756 39 32 0.0 1.0 0.00 0.00 0.00 81 1013.9
20260506071254 39 24 0.0 1.0 0.00 0.00 0.00 81 1013.9
20260506070751 39 29 0.0 0.0 0.00 0.00 0.00 81 1014.2
20260506070248 40 27 0.0 0.0 0.00 0.00 0.00 81 1013.7
20260506062224 41 30 0.0 0.0 0.00 0.00 0.00 77 1013.9
20260506061720 41 34 0.0 0.0 0.00 0.00 0.00 77 1014.0
20260506061218 41 29 0.0 0.0 0.00 0.00 0.00 76 1014.2
20260506060716 41 18 0.0 1.0 0.00 0.00 0.00 76 1014.1
20260506060213 41 29 0.0 0.0 0.00 0.00 0.00 76 1014.2
20260506051139 42 31 0.0 0.0 0.00 0.00 0.00 73 1014.1
20260506050638 42 31 0.0 0.0 0.00 0.00 0.00 73 1013.9
20260506050134 42 29 0.0 0.0 0.00 0.00 0.00 72 1014.1
20260506045127 43 5 1.0 1.0 0.00 0.00 0.00 72 1014.2
20260506044626 43 9 1.0 1.0 0.00 0.00 0.00 71 1014.3
20260506044122 43 359 1.0 1.0 0.00 0.00 0.00 71 1013.9
20260506043619 43 31 0.0 0.0 0.00 0.00 0.00 71 1013.6
20260506043118 43 27 0.0 0.0 0.00 0.00 0.00 70 1013.7
20260506042616 43 20 0.0 0.0 0.00 0.00 0.00 70 1013.8
20260506042114 43 30 0.0 0.0 0.00 0.00 0.00 70 1013.7
20260506041612 43 30 0.0 0.0 0.00 0.00 0.00 69 1013.6
20260506041108 43 27 0.0 0.0 0.00 0.00 0.00 68 1013.7
20260506040607 44 28 0.0 0.0 0.00 0.00 0.00 68 1013.6
20260506035600 44 10 0.0 1.0 0.00 0.00 0.00 69 1013.8
20260506035056 43 6 1.0 1.0 0.00 0.00 0.00 70 1013.7
20260506034554 43 24 0.0 1.0 0.00 0.00 0.00 71 1013.4
20260506034050 43 21 0.0 0.0 0.00 0.00 0.00 71 1013.4
20260506033548 42 33 0.0 0.0 0.00 0.00 0.00 72 1013.2
20260506033044 42 34 0.0 0.0 0.00 0.00 0.00 74 1013.4
20260506032542 42 35 0.0 0.0 0.00 0.00 0.00 73 1013.4
20260506032039 42 35 0.0 0.0 0.00 0.00 0.00 73 1013.5
20260506031537 43 35 0.0 0.0 0.00 0.00 0.00 71 1013.7
20260506031033 43 35 0.0 0.0 0.00 0.00 0.00 71 1013.6
20260506030531 43 33 0.0 0.0 0.00 0.00 0.00 71 1013.7
20260506030028 44 35 0.0 0.0 0.00 0.00 0.00 70 1013.7
20260506025525 44 16 1.0 1.0 0.00 0.00 0.00 69 1013.4
20260506025021 44 33 0.0 0.0 0.00 0.00 0.00 68 1013.2
20260506024518 44 35 0.0 0.0 0.00 0.00 0.00 67 1013.0
20260506024015 45 37 0.0 0.0 0.00 0.00 0.00 66 1013.2
20260506023511 45 32 0.0 0.0 0.00 0.00 0.00 64 1013.3
20260506023009 45 28 0.0 0.0 0.00 0.00 0.00 63 1013.0
20260506022506 45 30 0.0 0.0 0.00 0.00 0.00 64 1013.0
20260506022003 46 30 0.0 0.0 0.00 0.00 0.00 62 1013.0
20260506021501 46 16 0.0 1.0 0.00 0.00 0.00 61 1012.9